Weather History for Bend, OR

Change the Weather History Date:

Monday, October 15, 2012

  Actual Average (KRDM) Record (KRDM)
Temperature  
Mean Temperature 58 °F 48 °F  
Max Temperature 66 °F 64 °F 88 °F (1961)
Min Temperature 51 °F 31 °F 17 °F (2013)
Degree Days  
Heating Degree Days 6 17  
Month to date heating degree days 225  
Since 1 July heating degree days 624  
Cooling Degree Days 0 0  
Month to date cooling degree days 0  
Year to date cooling degree days 222  
Growing Degree Days 8 (Base 50)    
Moisture  
Dew Point 44 °F    
Average Humidity 60    
Maximum Humidity 77    
Minimum Humidity 38    
Precipitation  
Precipitation 0.31 in 0.02 in 0.91 in (2012)
Month to date precipitation 0.26  
Year to date precipitation 6.40  
Sea Level Pressure  
Sea Level Pressure 29.97 in    
Wind  
Wind Speed 14 mph (SSW)    
Max Wind Speed 23 mph    
Max Gust Speed 30 mph    
Visibility 9 miles    
Events Rain    
T = Trace of Precipitation, MM = Missing Value Source: NWS Daily Summary

Daily Weather History Graph

Daily Weather History Graph

Search for Another Location

Airport:

Trip Planner

Search our weather history database for the weather conditions in past years. The results will help you decide how hot, cold, wet, or windy it might be!

Date:

Astronomy

Oct. 15, 2012 Rise Set
Actual Time 7:20 AM PDT 6:19 PM PDT
Civil Twilight 6:51 AM PDT 6:49 PM PDT
Nautical Twilight 6:17 AM PDT 7:22 PM PDT
Astronomical Twilight 5:44 AM PDT 7:55 PM PDT
Moon 7:39 AM PDT (10/15) 6:19 PM PDT (10/15)
Length of Visible Light 11h 57m
Length of Day
10h 59m
New Moon, 0% of the Moon is Illuminated
Oct 15
New Moon
Oct 21
First Quarter
Oct 29
Full
Nov 6
Last Quarter
Nov 13
New

Hourly Weather History & Observations

Time (PDT) Temp. Dew Point Humidity Pressure Visibility Wind Dir Wind Speed Gust Speed Precip Events Conditions
12:15 AM 57.2 °F 32.0 °F 38% 30.05 in 10.0 mi SW 11.5 mph 16.1 mph N/A   Partly Cloudy
12:55 AM 57.2 °F 33.8 °F 41% 30.06 in 10.0 mi SW 11.5 mph 25.3 mph N/A Rain Light Rain
1:15 AM 55.4 °F 35.6 °F 47% 30.07 in 10.0 mi SW 15.0 mph 19.6 mph N/A   Partly Cloudy
1:35 AM 53.6 °F 39.2 °F 58% 30.06 in 9.0 mi SSW 18.4 mph 23.0 mph N/A Rain Light Rain
1:55 AM 53.6 °F 39.2 °F 58% 30.05 in 10.0 mi SSW 18.4 mph 26.5 mph N/A   Clear
2:15 AM 53.6 °F 41.0 °F 62% 30.04 in 9.0 mi South 12.7 mph 25.3 mph N/A Rain Light Rain
2:55 AM 53.6 °F 41.0 °F 62% 30.04 in 10.0 mi SSW 9.2 mph - N/A   Mostly Cloudy
3:15 AM 53.6 °F 41.0 °F 62% 30.03 in 10.0 mi SSW 9.2 mph - N/A   Mostly Cloudy
3:55 AM 53.6 °F 39.2 °F 58% 30.03 in 10.0 mi SW 20.7 mph 26.5 mph N/A   Clear
4:15 AM 51.8 °F 39.2 °F 62% 30.03 in 10.0 mi SSW 17.3 mph 25.3 mph N/A   Clear
4:35 AM 51.8 °F 39.2 °F 62% 30.03 in 10.0 mi SSW 15.0 mph - N/A   Clear
5:15 AM 51.8 °F 39.2 °F 62% 30.03 in 10.0 mi SSW 11.5 mph - N/A   Partly Cloudy
5:35 AM 51.8 °F 39.2 °F 62% 30.04 in 10.0 mi SW 12.7 mph - N/A   Clear
5:55 AM 51.8 °F 39.2 °F 62% 30.03 in 10.0 mi SW 11.5 mph 18.4 mph N/A   Clear
6:15 AM 53.6 °F 39.2 °F 58% 30.03 in 10.0 mi SSW 16.1 mph 20.7 mph N/A   Clear
6:35 AM 53.6 °F 39.2 °F 58% 30.03 in 10.0 mi SSW 16.1 mph - N/A   Clear
6:55 AM 53.6 °F 39.2 °F 58% 30.03 in 10.0 mi SSW 15.0 mph - N/A   Scattered Clouds
7:15 AM 53.6 °F 39.2 °F 58% 30.03 in 10.0 mi SSW 17.3 mph - N/A   Scattered Clouds
7:35 AM 53.6 °F 39.2 °F 58% 30.03 in 10.0 mi SSW 18.4 mph 24.2 mph N/A   Scattered Clouds
7:55 AM 53.6 °F 39.2 °F 58% 30.03 in 10.0 mi SSW 18.4 mph 21.9 mph N/A   Scattered Clouds
8:15 AM 53.6 °F 41.0 °F 62% 30.04 in 10.0 mi SSW 17.3 mph 24.2 mph N/A   Mostly Cloudy
8:35 AM 55.4 °F 39.2 °F 54% 30.04 in 10.0 mi SW 13.8 mph - N/A   Mostly Cloudy
8:55 AM 57.2 °F 41.0 °F 55% 30.04 in 10.0 mi SSW 16.1 mph - N/A   Mostly Cloudy
9:15 AM 57.2 °F 41.0 °F 55% 30.04 in 10.0 mi SSW 9.2 mph - N/A   Scattered Clouds
9:55 AM 59.0 °F 41.0 °F 51% 30.04 in 10.0 mi SSW 19.6 mph 25.3 mph N/A   Mostly Cloudy
10:15 AM 59.0 °F 41.0 °F 51% 30.04 in 10.0 mi SSW 17.3 mph 26.5 mph N/A   Mostly Cloudy
10:35 AM 59.0 °F 41.0 °F 51% 30.04 in 10.0 mi SSW 18.4 mph 25.3 mph N/A   Mostly Cloudy
11:15 AM 60.8 °F 41.0 °F 48% 30.04 in 10.0 mi SSW 23.0 mph 27.6 mph N/A   Scattered Clouds
11:35 AM 60.8 °F 41.0 °F 48% 30.04 in 10.0 mi SSW 20.7 mph 24.2 mph N/A   Scattered Clouds
11:55 AM 62.6 °F 42.8 °F 48% 30.03 in 10.0 mi SW 18.4 mph 29.9 mph N/A   Scattered Clouds
12:35 PM 64.4 °F 42.8 °F 45% 30.03 in 10.0 mi SSW 17.3 mph 24.2 mph N/A   Scattered Clouds
12:55 PM 64.4 °F 42.8 °F 45% 30.02 in 10.0 mi SSW 18.4 mph 23.0 mph N/A   Scattered Clouds
1:15 PM 64.4 °F 42.8 °F 45% 30.01 in 10.0 mi SSW 17.3 mph 23.0 mph N/A   Scattered Clouds
1:35 PM 64.4 °F 42.8 °F 45% 30.00 in 10.0 mi SW 21.9 mph 26.5 mph N/A   Scattered Clouds
1:55 PM 64.4 °F 44.6 °F 49% 29.98 in 10.0 mi SSW 20.7 mph - N/A   Scattered Clouds
2:15 PM 66.2 °F 44.6 °F 46% 29.97 in 10.0 mi SSW 19.6 mph 26.5 mph N/A   Partly Cloudy
2:35 PM 64.4 °F 44.6 °F 49% 29.96 in 10.0 mi SSW 17.3 mph 26.5 mph N/A   Clear
2:55 PM 64.4 °F 44.6 °F 49% 29.96 in 10.0 mi SW 15.0 mph 26.5 mph N/A   Clear
3:15 PM 64.4 °F 44.6 °F 49% 29.95 in 10.0 mi SSW 16.1 mph 24.2 mph N/A   Clear
3:35 PM 64.4 °F 44.6 °F 49% 29.94 in 10.0 mi South 15.0 mph - N/A   Clear
3:55 PM 64.4 °F 44.6 °F 49% 29.94 in 10.0 mi South 11.5 mph - N/A   Scattered Clouds
4:15 PM 64.4 °F 44.6 °F 49% 29.93 in 10.0 mi South 13.8 mph - N/A   Mostly Cloudy
4:35 PM 64.4 °F 44.6 °F 49% 29.94 in 10.0 mi SSW 10.4 mph 18.4 mph N/A   Mostly Cloudy
4:55 PM 62.6 °F 46.4 °F 55% 29.93 in 10.0 mi SSW 17.3 mph 23.0 mph N/A   Mostly Cloudy
5:15 PM 60.8 °F 48.2 °F 63% 29.93 in 8.0 mi SSW 9.2 mph - N/A Rain Light Rain
5:35 PM 59.0 °F 48.2 °F 67% 29.92 in 5.0 mi SSW 9.2 mph - 0.01 in Rain Light Rain
5:55 PM 59.0 °F 48.2 °F 67% 29.92 in 10.0 mi SSW 10.4 mph - 0.02 in Rain Light Rain
6:15 PM 59.0 °F 48.2 °F 67% 29.92 in 9.0 mi SSW 10.4 mph - N/A Rain Light Rain
6:35 PM 57.2 °F 48.2 °F 72% 29.90 in 7.0 mi South 8.1 mph - N/A Rain Light Rain
6:55 PM 57.2 °F 50.0 °F 77% 29.91 in 5.0 mi South 9.2 mph - 0.02 in Rain Light Rain
7:15 PM 57.2 °F 50.0 °F 77% 29.91 in 5.0 mi SSW 12.7 mph - 0.01 in Rain Light Rain
7:35 PM 57.2 °F 50.0 °F 77% 29.91 in 3.0 mi South 9.2 mph - 0.08 in Rain Rain
7:55 PM 57.2 °F 50.0 °F 77% 29.89 in 4.0 mi South 6.9 mph - 0.14 in Rain Light Rain
8:15 PM 57.2 °F 50.0 °F 77% 29.88 in 9.0 mi SSE 5.8 mph - N/A Rain Light Rain
8:35 PM 57.2 °F 50.0 °F 77% 29.88 in 10.0 mi SSE 8.1 mph - N/A   Partly Cloudy
9:15 PM 59.0 °F 48.2 °F 67% 29.85 in 10.0 mi SSW 13.8 mph - N/A   Scattered Clouds
9:35 PM 59.0 °F 48.2 °F 67% 29.86 in 7.0 mi WSW 8.1 mph 16.1 mph N/A Rain Light Rain
9:55 PM 57.2 °F 50.0 °F 77% 29.86 in 3.0 mi SW 4.6 mph - 0.07 in Rain Rain
10:15 PM 57.2 °F 50.0 °F 77% 29.84 in 5.0 mi SSW 5.8 mph - 0.01 in Rain Light Rain
10:35 PM 57.2 °F 50.0 °F 77% 29.83 in 5.0 mi SSW 12.7 mph - 0.04 in Rain Light Rain
10:55 PM 57.2 °F 50.0 °F 77% 29.83 in 8.0 mi SSW 11.5 mph - 0.05 in Rain Light Rain
11:15 PM 57.2 °F 50.0 °F 77% 29.82 in 10.0 mi SW 9.2 mph - N/A Rain Light Rain
11:35 PM 57.2 °F 50.0 °F 77% 29.83 in 8.0 mi SW 20.7 mph 26.5 mph N/A Rain Light Rain
11:55 PM 57.2 °F 50.0 °F 77% 29.83 in 10.0 mi SW 13.8 mph - 0.01 in Rain Light Rain